| time (UTC) | temp C | wind direction | speed KPH | gust KPH | rain 1hr cm | rain 24hr cm | rain mn cm | humidity % | barometer mb |
| 20260509065628 | 15 | 95 | 14.5 | 22.5 | 0.00 | 0.13 | 0.08 | 70 | 1004.0 |
| 20260509052625 | 12 | 118 | 12.9 | 17.7 | 0.00 | 0.15 | 0.08 | 75 | 1004.1 |
| 20260509041125 | 12 | 112 | 4.8 | 9.7 | 0.00 | 0.18 | 0.08 | 79 | 1004.4 |
| 20260509031120 | 12 | 150 | 6.4 | 12.9 | 0.00 | 0.18 | 0.08 | 79 | 1004.6 |
| 20260509013216 | 12 | 109 | 6.4 | 14.5 | 0.08 | 0.18 | 0.08 | 84 | 1004.8 |
| 20260509004727 | 13 | 156 | 4.8 | 16.1 | 0.03 | 0.13 | 0.03 | 78 | 1005.9 |
| 20260509001117 | 14 | 162 | 12.9 | 25.7 | 0.00 | 0.10 | 0.00 | 68 | 1005.9 |
| 20260508220215 | 14 | 60 | 20.9 | 33.8 | 0.00 | 0.10 | 0.10 | 69 | 1005.9 |
| 20260508214659 | 13 | 89 | 22.5 | 32.2 | 0.00 | 0.10 | 0.10 | 70 | 1006.3 |
| 20260508211112 | 13 | 82 | 20.9 | 30.6 | 0.00 | 0.10 | 0.10 | 69 | 1006.5 |
| 20260508201105 | 14 | 68 | 17.7 | 25.7 | 0.00 | 0.10 | 0.10 | 71 | 1006.8 |
| 20260508195605 | 14 | 108 | 9.7 | 24.1 | 0.00 | 0.10 | 0.10 | 71 | 1006.7 |
| 20260508194710 | 14 | 88 | 12.9 | 22.5 | 0.00 | 0.10 | 0.10 | 71 | 1006.8 |
| 20260508182559 | 16 | 65 | 3.2 | 6.4 | 0.00 | 0.10 | 0.10 | 62 | 1007.2 |
| 20260508181058 | 16 | 65 | 3.2 | 4.8 | 0.00 | 0.10 | 0.10 | 60 | 1007.3 |
| 20260508161043 | 17 | 244 | 4.8 | 9.7 | 0.00 | 0.10 | 0.10 | 58 | 1007.8 |
| 20260508144638 | 13 | 213 | 9.7 | 19.3 | 0.00 | 0.10 | 0.10 | 74 | 1008.8 |
| 20260508143838 | 14 | 188 | 12.9 | 27.4 | 0.00 | 0.10 | 0.10 | 73 | 1009.0 |
| 20260508132540 | 16 | 240 | 12.9 | 25.7 | 0.00 | 0.10 | 0.10 | 61 | 1008.9 |
| 20260508130132 | 16 | 248 | 11.3 | 20.9 | 0.00 | 0.10 | 0.10 | 70 | 1009.4 |
| 20260508094038 | 15 | 198 | 8.0 | 20.9 | 0.00 | 0.05 | 0.05 | 70 | 1009.3 |
| 20260508092537 | 15 | 100 | 4.8 | 14.5 | 0.00 | 0.05 | 0.05 | 79 | 1009.3 |
| 20260508082531 | 12 | 162 | 4.8 | 14.5 | 0.00 | 0.05 | 0.05 | 86 | 1009.0 |
| 20260508081030 | 11 | 153 | 8.0 | 14.5 | 0.00 | 0.05 | 0.05 | 86 | 1008.9 |